TimeCDT,TemperatureF,Dew PointF,Humidity,Sea Level PressureIn,VisibilityMPH,Wind Direction,Wind SpeedMPH,Gust SpeedMPH,PrecipitationIn,Events,Conditions,WindDirDegrees,DateUTC
12:53 AM,60.1,39.9,47,30.24,10.0,East,11.5,-,N/A,,Mostly Cloudy,100,2013-05-25 05:53:00
1:53 AM,59.0,41.0,51,30.23,10.0,SSE,8.1,-,N/A,,Scattered Clouds,150,2013-05-25 06:53:00
2:53 AM,57.9,43.0,58,30.27,10.0,East,3.5,-,N/A,,Mostly Cloudy,90,2013-05-25 07:53:00
3:53 AM,55.9,45.0,67,30.30,10.0,ENE,8.1,-,0.00,,Overcast,70,2013-05-25 08:53:00
4:53 AM,54.0,45.0,72,30.31,10.0,ESE,6.9,-,0.02,,Overcast,110,2013-05-25 09:53:00
5:53 AM,54.0,44.1,69,30.28,10.0,SE,9.2,-,N/A,,Overcast,130,2013-05-25 10:53:00
6:53 AM,55.0,42.1,62,30.29,10.0,SE,11.5,-,N/A,,Mostly Cloudy,130,2013-05-25 11:53:00
7:53 AM,53.1,44.1,71,30.29,10.0,SE,10.4,-,0.00,Rain,Light Rain,140,2013-05-25 12:53:00
8:53 AM,51.1,46.0,83,30.31,5.0,SE,8.1,-,0.06,Rain,Rain,130,2013-05-25 13:53:00
9:53 AM,50.0,46.9,89,30.37,5.0,ENE,3.5,-,0.13,Rain,Rain,60,2013-05-25 14:53:00
10:06 AM,50.0,48.2,94,30.39,3.0,South,3.5,-,0.05,Rain-Thunderstorm,Rain,170,2013-05-25 15:06:00
10:14 AM,50.0,48.2,94,30.40,2.5,Calm,Calm,-,0.07,Rain-Thunderstorm,Rain,0,2013-05-25 15:14:00
10:28 AM,50.0,48.2,94,30.38,1.8,ESE,3.5,-,0.13,Rain-Thunderstorm,Heavy Thunderstorms and Rain,120,2013-05-25 15:28:00
10:37 AM,50.0,48.2,94,30.37,2.0,East,3.5,-,0.18,Rain-Thunderstorm,Heavy Thunderstorms and Rain,80,2013-05-25 15:37:00
10:46 AM,50.0,48.2,94,30.37,3.0,ESE,4.6,-,0.22,Rain,Rain,120,2013-05-25 15:46:00
10:53 AM,50.0,48.9,96,30.36,2.5,SE,8.1,-,0.26,Rain,Rain,130,2013-05-25 15:53:00
11:05 AM,50.0,48.2,94,30.30,2.5,ESE,12.7,-,0.06,Rain-Thunderstorm,Heavy Rain,110,2013-05-25 16:05:00
11:14 AM,50.0,48.2,94,30.26,3.0,ESE,15.0,20.7,0.09,Rain,Rain,120,2013-05-25 16:14:00
11:18 AM,48.2,48.2,100,30.29,3.0,SSE,10.4,20.7,0.10,Rain-Thunderstorm,Rain,150,2013-05-25 16:18:00
11:48 AM,50.0,48.2,94,30.26,5.0,SE,13.8,20.7,0.19,Rain,Light Rain,130,2013-05-25 16:48:00
11:53 AM,50.0,48.0,93,30.29,7.0,SE,9.2,-,0.20,Rain,Light Rain,140,2013-05-25 16:53:00
12:53 PM,50.0,48.9,96,30.28,4.0,ESE,8.1,-,0.11,Rain,Rain,120,2013-05-25 17:53:00
1:34 PM,51.8,50.0,94,30.23,10.0,SE,11.5,19.6,0.01,,Mostly Cloudy,140,2013-05-25 18:34:00
1:53 PM,53.1,50.0,89,30.23,10.0,SE,15.0,21.9,0.01,,Mostly Cloudy,140,2013-05-25 18:53:00
1:59 PM,53.6,51.8,94,30.22,10.0,SE,15.0,20.7,N/A,,Mostly Cloudy,140,2013-05-25 18:59:00
2:29 PM,53.6,48.2,82,30.22,10.0,South,16.1,23.0,N/A,,Overcast,170,2013-05-25 19:29:00
2:53 PM,55.0,48.9,80,30.22,10.0,SSE,12.7,19.6,N/A,,Overcast,160,2013-05-25 19:53:00
3:22 PM,55.4,48.2,77,30.23,10.0,SE,6.9,-,N/A,,Overcast,140,2013-05-25 20:22:00
3:53 PM,55.9,48.9,77,30.24,10.0,East,8.1,-,N/A,,Overcast,90,2013-05-25 20:53:00
4:53 PM,55.0,50.0,83,30.23,10.0,East,10.4,-,N/A,,Overcast,100,2013-05-25 21:53:00
5:19 PM,55.4,48.2,77,30.22,10.0,East,12.7,18.4,N/A,,Overcast,90,2013-05-25 22:19:00
5:27 PM,55.4,48.2,77,30.23,10.0,East,10.4,-,N/A,,Overcast,90,2013-05-25 22:27:00
5:53 PM,54.0,48.9,83,30.24,10.0,East,12.7,-,N/A,,Overcast,90,2013-05-25 22:53:00
6:53 PM,53.1,48.9,86,30.22,10.0,East,13.8,-,N/A,,Overcast,90,2013-05-25 23:53:00
7:21 PM,53.6,48.2,82,30.22,10.0,East,12.7,-,N/A,,Overcast,100,2013-05-26 00:21:00
7:53 PM,53.1,48.0,83,30.22,10.0,East,11.5,19.6,N/A,,Overcast,100,2013-05-26 00:53:00
8:53 PM,53.1,48.9,86,30.22,10.0,ESE,8.1,-,N/A,,Overcast,110,2013-05-26 01:53:00
9:53 PM,53.1,48.9,86,30.23,10.0,East,10.4,-,N/A,,Overcast,90,2013-05-26 02:53:00
10:24 PM,53.6,48.2,82,30.22,10.0,East,11.5,20.7,N/A,,Overcast,90,2013-05-26 03:24:00
10:53 PM,53.1,48.9,86,30.23,10.0,East,12.7,17.3,N/A,,Overcast,100,2013-05-26 03:53:00
11:53 PM,53.1,48.9,86,30.23,10.0,ESE,9.2,-,0.00,,Overcast,110,2013-05-26 04:53:00